Time,TemperatureF,DewpointF,PressureIn,WindDirection,WindDirectionDegrees,WindSpeedMPH,WindSpeedGustMPH,Humidity,HourlyPrecipIn,Conditions,Clouds,dailyrainin,SoftwareType,DateUTC
2013-04-12 00:03:00,41.0,40.0,29.59,North,11,0.0,1.0,97,0.00,,,0.96,,2013-04-12 04:03:00,
2013-04-12 00:13:00,41.0,40.0,29.59,North,11,0.0,1.0,97,0.00,,,0.96,,2013-04-12 04:13:00,
2013-04-12 00:23:00,41.0,40.0,29.59,East,84,0.0,1.0,97,0.00,,,0.96,,2013-04-12 04:23:00,
2013-04-12 00:33:00,41.0,40.0,29.59,SSW,193,0.0,1.0,97,0.01,,,0.97,,2013-04-12 04:33:00,
2013-04-12 00:43:00,41.0,40.0,29.59,SSW,193,0.0,1.0,97,0.01,,,0.97,,2013-04-12 04:43:00,
2013-04-12 00:53:00,41.0,40.0,29.60,SSW,193,0.0,0.0,97,0.04,,,1.00,,2013-04-12 04:53:00,
2013-04-12 01:03:00,41.0,40.0,29.59,SSW,193,0.0,0.0,97,0.06,,,1.02,,2013-04-12 05:03:00,
2013-04-12 01:12:00,41.0,40.0,29.59,SSW,193,0.0,0.0,97,0.06,,,1.02,,2013-04-12 05:12:00,
2013-04-12 01:23:00,41.0,40.0,29.59,SSW,193,0.0,0.0,97,0.07,,,0.89,,2013-04-12 05:23:00,
2013-04-12 01:32:00,41.0,40.0,29.58,SSW,193,0.0,0.0,97,0.06,,,0.89,,2013-04-12 05:32:00,
2013-04-12 01:42:00,41.0,40.0,29.58,SSW,193,0.0,0.0,97,0.06,,,0.89,,2013-04-12 05:42:00,
2013-04-12 01:52:00,41.0,40.0,29.58,SSW,193,0.0,0.0,98,0.04,,,0.90,,2013-04-12 05:52:00,
2013-04-12 02:02:00,41.0,40.0,29.58,SSW,193,0.0,0.0,98,0.03,,,0.91,,2013-04-12 06:02:00,
2013-04-12 02:12:00,41.0,40.0,29.58,SSW,193,0.0,0.0,98,0.03,,,0.91,,2013-04-12 06:12:00,
2013-04-12 02:22:00,41.0,40.0,29.60,SW,219,0.0,1.0,98,0.02,,,0.81,,2013-04-12 06:22:00,
2013-04-12 02:32:00,41.0,40.0,29.59,SW,219,0.0,1.0,98,0.03,,,0.82,,2013-04-12 06:32:00,
2013-04-12 02:42:00,41.0,40.0,29.59,SW,219,0.0,1.0,98,0.03,,,0.82,,2013-04-12 06:42:00,
2013-04-12 02:52:00,41.0,40.0,29.59,SW,236,0.0,1.0,98,0.03,,,0.83,,2013-04-12 06:52:00,
2013-04-12 03:02:00,41.0,40.0,29.58,WSW,237,0.0,1.0,98,0.02,,,0.83,,2013-04-12 07:02:00,
2013-04-12 03:12:00,41.0,40.0,29.58,WSW,237,0.0,1.0,98,0.02,,,0.83,,2013-04-12 07:12:00,
2013-04-12 03:22:00,42.0,41.0,29.59,West,276,3.0,5.0,98,0.02,,,0.55,,2013-04-12 07:22:00,
2013-04-12 03:32:00,42.0,41.0,29.58,NW,319,3.0,7.0,98,0.01,,,0.55,,2013-04-12 07:32:00,
2013-04-12 03:42:00,42.0,41.0,29.58,NW,319,3.0,7.0,98,0.01,,,0.55,,2013-04-12 07:42:00,
2013-04-12 03:52:00,43.0,42.0,29.58,West,278,3.0,8.0,97,0.00,,,0.55,,2013-04-12 07:52:00,
2013-04-12 04:03:00,43.0,42.0,29.58,WNW,288,4.0,9.0,97,0.00,,,0.55,,2013-04-12 08:03:00,
2013-04-12 04:12:00,43.0,42.0,29.58,WNW,288,4.0,9.0,97,0.00,,,0.55,,2013-04-12 08:12:00,
2013-04-12 04:22:00,42.0,41.0,29.58,West,272,6.0,15.0,96,0.00,,,0.49,,2013-04-12 08:22:00,
2013-04-12 04:32:00,41.0,40.0,29.58,West,269,5.0,11.0,96,0.00,,,0.49,,2013-04-12 08:32:00,
2013-04-12 04:42:00,41.0,40.0,29.58,West,269,5.0,11.0,96,0.00,,,0.49,,2013-04-12 08:42:00,
2013-04-12 04:53:00,41.0,40.0,29.58,WSW,242,5.0,10.0,95,0.00,,,0.49,,2013-04-12 08:53:00,
2013-04-12 05:02:00,40.0,39.0,29.59,WNW,290,4.0,6.0,96,0.00,,,0.49,,2013-04-12 09:02:00,
2013-04-12 05:12:00,40.0,39.0,29.59,WNW,290,4.0,6.0,96,0.00,,,0.49,,2013-04-12 09:12:00,
2013-04-12 05:22:00,40.0,39.0,29.60,NW,316,6.0,11.0,96,0.00,,,0.44,,2013-04-12 09:22:00,
2013-04-12 05:33:00,40.0,38.0,29.60,WNW,289,6.0,10.0,94,0.00,,,0.44,,2013-04-12 09:33:00,
2013-04-12 05:43:00,40.0,38.0,29.60,WNW,289,6.0,10.0,94,0.00,,,0.44,,2013-04-12 09:43:00,
2013-04-12 05:53:00,40.0,39.0,29.60,WSW,254,4.0,10.0,95,0.00,,,0.44,,2013-04-12 09:53:00,
2013-04-12 06:03:00,40.0,39.0,29.60,WSW,254,4.0,10.0,95,0.00,,,0.44,,2013-04-12 10:03:00,
2013-04-12 06:13:00,40.0,39.0,29.60,WSW,254,4.0,10.0,95,0.00,,,0.44,,2013-04-12 10:13:00,
2013-04-12 06:23:00,39.0,37.0,29.59,WNW,282,4.0,6.0,94,0.00,,,0.44,,2013-04-12 10:23:00,
2013-04-12 06:34:00,39.0,37.0,29.59,WSW,252,4.0,7.0,94,0.00,,,0.44,,2013-04-12 10:34:00,
2013-04-12 06:43:00,39.0,37.0,29.59,WSW,252,4.0,7.0,94,0.00,,,0.44,,2013-04-12 10:43:00,
2013-04-12 06:53:00,39.0,37.0,29.60,WSW,246,3.0,6.0,92,0.00,,,0.44,,2013-04-12 10:53:00,
2013-04-12 07:03:00,39.0,37.0,29.60,West,278,2.0,5.0,93,0.00,,,0.44,,2013-04-12 11:03:00,
2013-04-12 07:13:00,39.0,37.0,29.60,West,278,2.0,5.0,93,0.00,,,0.44,,2013-04-12 11:13:00,
2013-04-12 07:22:00,39.0,36.0,29.60,WSW,253,3.0,10.0,90,0.00,,,0.44,,2013-04-12 11:22:00,
2013-04-12 07:32:00,39.0,36.0,29.61,WSW,240,4.0,8.0,90,0.00,,,0.44,,2013-04-12 11:32:00,
2013-04-12 07:43:00,39.0,36.0,29.61,WSW,240,4.0,8.0,90,0.00,,,0.44,,2013-04-12 11:43:00,
2013-04-12 07:52:00,39.0,36.0,29.62,WNW,284,3.0,8.0,90,0.00,,,0.44,,2013-04-12 11:52:00,
2013-04-12 08:02:00,39.0,37.0,29.62,WSW,247,3.0,6.0,91,0.00,,,0.44,,2013-04-12 12:02:00,
2013-04-12 08:13:00,39.0,37.0,29.62,WSW,247,3.0,6.0,91,0.00,,,0.44,,2013-04-12 12:13:00,
2013-04-12 08:22:00,39.0,36.0,29.63,SW,233,8.0,13.0,90,0.00,,,0.44,,2013-04-12 12:22:00,
2013-04-12 08:33:00,39.0,36.0,29.63,SW,227,6.0,11.0,89,0.00,,,0.44,,2013-04-12 12:33:00,
2013-04-12 08:42:00,39.0,36.0,29.63,SW,227,6.0,11.0,89,0.00,,,0.44,,2013-04-12 12:42:00,
2013-04-12 08:53:00,39.0,35.0,29.64,SW,233,6.0,11.0,87,0.00,,,0.44,,2013-04-12 12:53:00,
2013-04-12 09:03:00,38.0,34.0,29.65,WSW,252,8.0,16.0,85,0.00,,,0.44,,2013-04-12 13:03:00,
2013-04-12 09:12:00,38.0,34.0,29.65,WSW,252,8.0,16.0,85,0.00,,,0.44,,2013-04-12 13:12:00,
2013-04-12 09:22:00,38.0,34.0,29.65,SSW,212,8.0,13.0,84,0.00,,,0.44,,2013-04-12 13:22:00,
2013-04-12 09:32:00,38.0,33.0,29.65,SW,214,9.0,15.0,82,0.00,,,0.44,,2013-04-12 13:32:00,
2013-04-12 09:42:00,38.0,33.0,29.65,SW,214,9.0,15.0,82,0.00,,,0.44,,2013-04-12 13:42:00,
2013-04-12 09:53:00,38.0,33.0,29.65,SW,231,6.0,11.0,82,0.00,,,0.44,,2013-04-12 13:53:00,
2013-04-12 10:03:00,39.0,34.0,29.65,WSW,239,8.0,13.0,82,0.00,,,0.44,,2013-04-12 14:03:00,
2013-04-12 10:13:00,39.0,34.0,29.65,WSW,239,8.0,13.0,82,0.00,,,0.44,,2013-04-12 14:13:00,
2013-04-12 10:23:00,39.0,34.0,29.65,SW,235,7.0,15.0,83,0.00,,,0.44,,2013-04-12 14:23:00,
2013-04-12 10:33:00,39.0,34.0,29.66,SW,221,9.0,15.0,82,0.00,,,0.44,,2013-04-12 14:33:00,
2013-04-12 10:42:00,39.0,34.0,29.66,SW,221,9.0,15.0,82,0.00,,,0.44,,2013-04-12 14:42:00,
2013-04-12 10:54:00,39.0,35.0,29.66,SW,217,6.0,10.0,84,0.00,,,0.44,,2013-04-12 14:54:00,
2013-04-12 11:03:00,39.0,35.0,29.67,West,274,5.0,14.0,84,0.00,,,0.44,,2013-04-12 15:03:00,
2013-04-12 11:12:00,39.0,35.0,29.67,West,274,5.0,14.0,84,0.00,,,0.44,,2013-04-12 15:12:00,
2013-04-12 11:22:00,39.0,34.0,29.67,NW,319,6.0,18.0,83,0.00,,,0.44,,2013-04-12 15:22:00,
2013-04-12 11:33:00,39.0,34.0,29.67,SW,223,9.0,16.0,83,0.00,,,0.44,,2013-04-12 15:33:00,
2013-04-12 11:43:00,39.0,34.0,29.67,SW,223,9.0,16.0,83,0.00,,,0.44,,2013-04-12 15:43:00,
2013-04-12 11:53:00,39.0,34.0,29.67,WSW,241,8.0,14.0,83,0.00,,,0.44,,2013-04-12 15:53:00,
2013-04-12 12:04:00,39.0,34.0,29.68,SW,224,7.0,12.0,83,0.00,,,0.44,,2013-04-12 16:04:00,
2013-04-12 12:13:00,39.0,34.0,29.68,SW,224,7.0,12.0,83,0.00,,,0.44,,2013-04-12 16:13:00,
2013-04-12 12:23:00,39.0,35.0,29.68,SW,230,6.0,12.0,84,0.00,,,0.44,,2013-04-12 16:23:00,
2013-04-12 12:33:00,40.0,34.0,29.69,SSW,210,9.0,15.0,79,0.00,,,0.44,,2013-04-12 16:33:00,
2013-04-12 12:43:00,40.0,34.0,29.69,SSW,210,9.0,15.0,79,0.00,,,0.44,,2013-04-12 16:43:00,
2013-04-12 12:53:00,40.0,34.0,29.69,SW,216,6.0,14.0,80,0.00,,,0.44,,2013-04-12 16:53:00,
2013-04-12 13:03:00,40.0,34.0,29.70,WSW,249,7.0,14.0,79,0.00,,,0.44,,2013-04-12 17:03:00,
2013-04-12 13:12:00,40.0,34.0,29.70,WSW,249,7.0,14.0,79,0.00,,,0.44,,2013-04-12 17:12:00,
2013-04-12 13:23:00,40.0,34.0,29.70,WSW,252,6.0,10.0,80,0.00,,,0.44,,2013-04-12 17:23:00,
2013-04-12 13:33:00,40.0,34.0,29.70,SSW,212,6.0,10.0,80,0.00,,,0.44,,2013-04-12 17:33:00,
2013-04-12 13:46:00,40.0,34.0,29.70,SSW,212,6.0,10.0,80,0.00,,,0.44,,2013-04-12 17:46:00,
2013-04-12 14:07:00,41.0,36.0,29.70,SW,226,5.0,12.0,81,0.00,,,0.44,,2013-04-12 18:07:00,
2013-04-12 15:26:00,42.0,36.0,29.71,SW,234,9.0,18.0,80,0.00,,,0.43,,2013-04-12 19:26:00,
2013-04-12 15:27:00,42.0,36.0,29.71,SW,234,9.0,18.0,80,0.00,,,0.43,,2013-04-12 19:27:00,
2013-04-12 15:33:00,42.0,35.0,29.72,SW,225,11.0,19.0,77,0.00,,,0.42,,2013-04-12 19:33:00,
2013-04-12 15:43:00,42.0,35.0,29.72,SW,225,11.0,19.0,77,0.00,,,0.42,,2013-04-12 19:43:00,
2013-04-12 15:53:00,43.0,37.0,29.73,WSW,255,10.0,16.0,80,0.00,,,0.42,,2013-04-12 19:53:00,
2013-04-12 16:02:00,43.0,36.0,29.73,West,271,12.0,17.0,77,0.00,,,0.42,,2013-04-12 20:02:00,
2013-04-12 16:13:00,43.0,36.0,29.73,West,271,12.0,17.0,77,0.00,,,0.42,,2013-04-12 20:13:00,
2013-04-12 16:22:00,43.0,36.0,29.73,SW,229,9.0,17.0,77,0.00,,,0.42,,2013-04-12 20:22:00,
2013-04-12 16:32:00,41.0,38.0,29.74,SW,236,8.0,20.0,88,0.01,,,0.43,,2013-04-12 20:32:00,
2013-04-12 16:42:00,41.0,38.0,29.74,SW,236,8.0,20.0,88,0.01,,,0.43,,2013-04-12 20:42:00,
2013-04-12 16:52:00,42.0,38.0,29.74,SSW,212,9.0,14.0,85,0.01,,,0.43,,2013-04-12 20:52:00,
2013-04-12 17:02:00,42.0,38.0,29.75,SW,236,8.0,26.0,87,0.01,,,0.43,,2013-04-12 21:02:00,
2013-04-12 17:12:00,42.0,38.0,29.75,SW,236,8.0,26.0,87,0.01,,,0.43,,2013-04-12 21:12:00,
2013-04-12 17:22:00,42.0,38.0,29.75,SW,226,10.0,18.0,84,0.01,,,0.43,,2013-04-12 21:22:00,
2013-04-12 17:33:00,43.0,38.0,29.75,SW,220,9.0,14.0,82,0.00,,,0.43,,2013-04-12 21:33:00,
2013-04-12 17:43:00,43.0,38.0,29.75,SW,220,9.0,14.0,82,0.00,,,0.43,,2013-04-12 21:43:00,
2013-04-12 17:53:00,43.0,38.0,29.75,SW,236,10.0,16.0,82,0.00,,,0.43,,2013-04-12 21:53:00,
2013-04-12 18:02:00,43.0,38.0,29.76,SW,219,9.0,15.0,82,0.00,,,0.43,,2013-04-12 22:02:00,
2013-04-12 18:13:00,43.0,38.0,29.76,SW,219,9.0,15.0,82,0.00,,,0.43,,2013-04-12 22:13:00,
2013-04-12 18:22:00,42.0,38.0,29.77,SW,236,9.0,15.0,86,0.00,,,0.40,,2013-04-12 22:22:00,
2013-04-12 18:33:00,42.0,38.0,29.77,West,271,13.0,20.0,86,0.00,,,0.40,,2013-04-12 22:33:00,
2013-04-12 18:43:00,42.0,38.0,29.77,West,271,13.0,20.0,86,0.00,,,0.40,,2013-04-12 22:43:00,
2013-04-12 18:52:00,41.0,38.0,29.78,SSW,200,8.0,20.0,89,0.00,,,0.40,,2013-04-12 22:52:00,
2013-04-12 19:04:00,41.0,38.0,29.79,SW,224,7.0,14.0,90,0.00,,,0.40,,2013-04-12 23:04:00,
2013-04-12 19:12:00,41.0,38.0,29.79,SW,224,7.0,14.0,90,0.00,,,0.40,,2013-04-12 23:12:00,
2013-04-12 19:22:00,41.0,38.0,29.79,SW,231,10.0,19.0,90,0.00,,,0.32,,2013-04-12 23:22:00,
2013-04-12 19:32:00,41.0,38.0,29.80,SSW,203,11.0,18.0,89,0.00,,,0.32,,2013-04-12 23:32:00,
2013-04-12 19:42:00,41.0,38.0,29.80,SSW,203,11.0,18.0,89,0.00,,,0.32,,2013-04-12 23:42:00,
2013-04-12 19:52:00,41.0,38.0,29.80,WSW,245,10.0,16.0,88,0.00,,,0.32,,2013-04-12 23:52:00,
2013-04-12 20:02:00,41.0,38.0,29.80,WSW,243,6.0,14.0,89,0.00,,,0.32,,2013-04-13 00:02:00,
2013-04-12 20:12:00,41.0,38.0,29.80,WSW,243,6.0,14.0,89,0.00,,,0.32,,2013-04-13 00:12:00,
2013-04-12 20:22:00,41.0,38.0,29.80,West,259,6.0,14.0,90,0.00,,,0.29,,2013-04-13 00:22:00,
2013-04-12 20:32:00,41.0,39.0,29.80,West,259,5.0,13.0,91,0.00,,,0.29,,2013-04-13 00:32:00,
2013-04-12 20:42:00,41.0,39.0,29.80,West,259,5.0,13.0,91,0.00,,,0.29,,2013-04-13 00:42:00,
2013-04-12 20:52:00,41.0,38.0,29.80,SSW,203,7.0,14.0,88,0.00,,,0.29,,2013-04-13 00:52:00,
2013-04-12 21:02:00,41.0,37.0,29.81,SW,227,5.0,11.0,86,0.00,,,0.29,,2013-04-13 01:02:00,
2013-04-12 21:22:00,41.0,37.0,29.81,WSW,243,6.0,13.0,86,0.00,,,0.19,,2013-04-13 01:22:00,
2013-04-12 21:33:00,41.0,37.0,29.82,West,262,5.0,13.0,86,0.00,,,0.19,,2013-04-13 01:33:00,
2013-04-12 21:43:00,41.0,37.0,29.82,West,262,5.0,13.0,86,0.00,,,0.19,,2013-04-13 01:43:00,
2013-04-12 21:52:00,41.0,37.0,29.83,SSW,194,5.0,9.0,86,0.00,,,0.19,,2013-04-13 01:52:00,
2013-04-12 22:02:00,41.0,37.0,29.83,SW,232,7.0,13.0,84,0.00,,,0.19,,2013-04-13 02:02:00,
2013-04-12 22:12:00,41.0,37.0,29.83,SW,232,7.0,13.0,84,0.00,,,0.19,,2013-04-13 02:12:00,
2013-04-12 22:23:00,41.0,36.0,29.84,SW,216,8.0,14.0,81,0.00,,,0.14,,2013-04-13 02:23:00,
2013-04-12 22:33:00,41.0,36.0,29.84,West,262,5.0,10.0,81,0.00,,,0.14,,2013-04-13 02:33:00,
2013-04-12 22:42:00,41.0,36.0,29.84,West,262,5.0,10.0,81,0.00,,,0.14,,2013-04-13 02:42:00,
2013-04-12 22:53:00,41.0,36.0,29.85,WNW,294,4.0,8.0,82,0.00,,,0.14,,2013-04-13 02:53:00,
2013-04-12 23:03:00,41.0,36.0,29.85,West,262,4.0,8.0,82,0.00,,,0.14,,2013-04-13 03:03:00,
2013-04-12 23:12:00,41.0,36.0,29.85,West,262,4.0,8.0,82,0.00,,,0.14,,2013-04-13 03:12:00,
2013-04-12 23:23:00,41.0,36.0,29.85,WNW,283,4.0,13.0,82,0.00,,,0.12,,2013-04-13 03:23:00,
2013-04-12 23:33:00,40.0,34.0,29.85,West,260,8.0,13.0,78,0.00,,,0.12,,2013-04-13 03:33:00,
2013-04-12 23:43:00,40.0,34.0,29.85,West,260,8.0,13.0,78,0.00,,,0.12,,2013-04-13 03:43:00,
2013-04-12 23:54:00,40.0,33.0,29.86,West,271,7.0,14.0,77,0.00,,,0.12,,2013-04-13 03:54:00,